NOAA 16 DEB, 41281

Orbit data source: Space-Track

NOAA 16 DEB, 41281 is space debris in SSO originally from a launch on Thu, 21 Sep 2000 UTC launched from the Air Force Western Test Range (AFWTR). Debris objects in space refer to the collection of defunct objects orbiting the Earth. Examples of debris include non-operational satellites, rocket bodies, and fragments generated from explosions, collisions, or faulty payload assembly.

Loading next visibility...
Identifier
41281, 2000-055GH
Orbit
SSO
Country
Flag of USUS
Related business
Manufacturer
Unknown
Mission
Spacecraft
Bus & Motor
Unknown
Mass
Unknown
Launch date (UTC)
2000-09-21 (25 years ago)
Launch vehicle
Unknown
Launch site
Air Force Western Test Range (AFWTR)
Object type
Payload
Rocket body
Debris
Shape & HBR
Unknown shape, 0.1 m
Radar Cross Section
Small (<0.1 m²)

Expand to show TLE details & history
Last TLE update: 3 days ago

TLE from 3 days ago
0 NOAA 16 DEB
1 41281U 00055GH  25283.93265411  .00005441  00000-0  23586-2 0  9997
2 41281  98.8155 344.5883 0033564 213.7549 146.1493 14.24340187503944
Epoch: 2025-10-10T22:23Z
TLE epoch observation values (Epoch: 2025-10-10T22:23:01.315Z)
Latitude
0.00004°
Longitude
-10.93858°
Altitude
833.697 km
Speed
7.426 km/s
True Right ascension
22h 58m 21s
True Declination
0° 00' 00"
Sunlit
Object was in full shadow at epoch
Visualization orbit readout
Latitude
Unknown
Longitude
Unknown
Altitude
Unknown
Speed
Unknown
Apparent Right ascension
Unknown
Apparent Declination
Unknown
Sunlit
N/A
Visualization observer readout
Local Sidereal Time
02:57:34
Azimuth
Unknown
Elevation
Unknown
Doppler factor
Unknown
Orbital elements
Apogee altitude
831.989 km
Perigee altitude
783.751 km
Semi-major axis
7,186.007 km
Eccentricity
0.00336
Inclination
98.8155°
RAAN
344.5883°
Arg. of periapsis
213.7549°
True anomaly
146.3628°
Mean anomaly
146.1493°
Eccentric anomaly
146.25612°
Mean motion
3.56297 °/min
Orbital period
101.04 mins
BSTAR
0.0023586
Loading maneuver chart data...
Computing Atmospheric mass density...
Loading historical data...
Loading historical data...
Loading historical data...
Loading historical data...
Loading historical data...
Loading historical data...
Loading historical data...

Documentation

Showing up to 5 results
|